Flag for Canada Weather past 2 weeks in London, Ontario, Canada

Now
50 °F

Passing clouds.


Feels Like: 47 °F
Forecast: 47 / 61 °F
Wind: 7 mph from West

Location: London Weather Station

Current Time: Oct 25, 2014 at 3:47:57 AM

Latest Report: Oct 25, 2014 at 3:00 AM


Visibility: 15 mi

Pressure: 29.90 "Hg

Humidity: 88%

Dew point: 46 °F

Location of LondonLocation

Historic Weather in London — Graph

°F

London temperature yesterday

Maximum temperature yesterday: 61 °F (at 4:00 PM)
Minimum temperature yesterday: 32 °F (at 4:51 AM)
Average temperature yesterday: 45 °F

Past Weeks' High & Low Weather Summary

 TemperatureHumidityPressure
High68 °F (Oct 14, 11:00 AM)100% (Oct 10, 2:00 AM)30.31 "Hg (Oct 10, 2:00 AM)
Low30 °F (Oct 12, 5:00 AM)41% (Oct 12, 5:00 PM)29.50 "Hg (Oct 17, 3:00 PM)
Average49 °F85%29.97 "Hg
* Reported Oct 10 2:00 AM — Oct 25 2:00 AM, London, Weather by CustomWeather, © 2014

Note: Actual official high and low records may vary slightly from our data, if they occured in-between our weather recording intervals... More about our weather records

Advertising

London weather history for previous 24 hours

 ConditionsComfort  
Time TempWeatherWind HumidityBarometerVisibility
2:00 AM
Oct 25
50 °FPassing clouds.8 mph88%29.92 "Hg15 mi
1:00 AM50 °FPassing clouds.6 mph82%29.93 "Hg15 mi
12:00 AM52 °FOvercast.6 mph77%29.95 "Hg15 mi
11:00 PM
Oct 24
50 °FPassing clouds.7 mph82%29.96 "Hg15 mi
10:00 PM48 °FPartly cloudy.2 mph87%29.97 "Hg15 mi
9:00 PM52 °FPassing clouds.3 mph67%29.98 "Hg12 mi
8:00 PM54 °FPassing clouds.6 mph67%29.99 "Hg15 mi
7:00 PM54 °FPartly sunny.9 mph63%29.99 "Hg15 mi
6:00 PM57 °FBroken clouds.6 mph59%29.97 "Hg15 mi
5:00 PM59 °FBroken clouds.10 mph51%29.97 "Hg15 mi
4:00 PM61 °FPassing clouds.7 mph45%29.98 "Hg15 mi
3:00 PM59 °FScattered clouds.7 mph51%30.00 "Hg12 mi
2:00 PM59 °FScattered clouds.8 mph51%30.02 "Hg12 mi
1:00 PM55 °FPartly sunny.8 mph59%30.05 "Hg10 mi
12:00 PM52 °FPartly sunny.5 mph72%30.07 "Hg8 mi
11:00 AM46 °FPartly sunny.6 mph93%30.08 "Hg8 mi
10:00 AM43 °FFog.No wind100%30.09 "Hg5 mi
9:00 AM34 °FFog.No wind100%30.09 "Hg3 mi
8:00 AM32 °FIce fog.2 mph100%30.09 "Hg3 mi
7:52 AM34 °FFog.No wind100%30.09 "Hg2 mi
7:00 AM34 °FFog.3 mph100%30.09 "Hg1 mi
6:00 AM32 °FIce fog.3 mph100%30.09 "Hg1 mi
5:00 AM32 °FIce fog.No wind100%30.09 "Hg1 mi
4:51 AM32 °FIce fog.No wind100%30.09 "Hg1 mi
4:00 AM36 °FClear.6 mph100%30.09 "Hg8 mi
3:00 AM36 °FClear.2 mph100%30.09 "Hg12 mi
Weather by CustomWeather, © 2014

See weather overviewHow to use our weather pages